Beatrice, NE

5:39 PM CDT on April 23, 2017 (GMT -0500)
Beatrice Municipal

Weather History for KBIE - January, 2014

Change the Weather History Date:

Thursday, January 16, 2014

  Actual Average Record
Temperature  
Mean Temperature 32 °F -  
Max Temperature 44 °F 35 °F 62 °F (2015)
Min Temperature 21 °F 12 °F -13 °F (1977)
Degree Days  
Heating Degree Days 32    
Moisture  
Dew Point 17 °F    
Average Humidity 47    
Maximum Humidity 77    
Minimum Humidity 33    
Precipitation  
Precipitation 0.00 in - - ()
Sea Level Pressure  
Sea Level Pressure 29.91 in    
Wind  
Wind Speed 20 mph (NW)    
Max Wind Speed 41 mph    
Max Gust Speed 54 mph    
Visibility 10 miles    
Events Snow    
Averages and records for this station are not official NWS values.
T = Trace of Precipitation, MM = Missing Value Source: NWS Daily Summary

Daily Weather History Graph

Daily Weather History Graph

Search for Another Location

Airport or City:

Trip Planner

Search our weather history database for the weather conditions in past years. The results will help you decide how hot, cold, wet, or windy it might be!

Date:

Astronomy

Jan. 16, 2014 Rise Set
Actual Time 7:47 AM CST 5:26 PM CST
Civil Twilight 7:17 AM CST 5:56 PM CST
Nautical Twilight 6:44 AM CST 6:29 PM CST
Astronomical Twilight 6:11 AM CST 7:02 PM CST
Moon 6:19 PM CST (1/16) 7:41 AM CST (1/16)
Length of Visible Light 10h 38m
Length of Day
9h 39m
Full, 100% of the Moon is Illuminated
Jan 16
Full
Jan 23
Last Quarter
Jan 30
New
Feb 6
First Quarter
Feb 14
Full

Hourly Weather History & Observations

Time (CST) Temp. Windchill Dew Point Humidity Pressure Visibility Wind Dir Wind Speed Gust Speed Precip Events Conditions
12:15 AM 31.5 °F 24.9 °F 25.0 °F 77% 29.81 in 10.0 mi WNW 6.9 mph - N/A   Mostly Cloudy
12:35 AM 34.2 °F 27.5 °F 26.6 °F 74% 29.82 in 10.0 mi NW 8.1 mph - N/A   Scattered Clouds
12:55 AM 35.6 °F 30.7 °F 27.1 °F 71% 29.81 in 10.0 mi WNW 5.8 mph - N/A   Mostly Cloudy
1:15 AM 33.1 °F 27.7 °F 26.4 °F 77% 29.79 in 10.0 mi South 5.8 mph - N/A   Overcast
1:35 AM 33.8 °F 27.7 °F 27.1 °F 77% 29.80 in 10.0 mi SSW 6.9 mph - N/A   Overcast
1:55 AM 35.8 °F 30.1 °F 28.2 °F 74% 29.80 in 10.0 mi WSW 6.9 mph - N/A   Mostly Cloudy
2:15 AM 34.0 °F 26.0 °F 27.3 °F 77% 29.79 in 10.0 mi WSW 10.4 mph - N/A   Scattered Clouds
2:35 AM 34.9 °F 27.1 °F 28.2 °F 77% 29.78 in 10.0 mi WSW 10.4 mph - N/A   Clear
2:55 AM 34.7 °F 26.4 °F 27.9 °F 76% 29.78 in 10.0 mi WSW 11.5 mph - N/A   Clear
3:15 AM 36.7 °F 26.9 °F 28.4 °F 72% 29.80 in 10.0 mi West 17.3 mph - N/A   Clear
3:35 AM 43.0 °F 34.8 °F 27.5 °F 54% 29.80 in 10.0 mi WNW 18.4 mph 25.3 mph N/A   Scattered Clouds
3:55 AM 41.0 °F 33.1 °F 27.3 °F 58% 29.79 in 10.0 mi WNW 15.0 mph 19.6 mph N/A   Scattered Clouds
4:15 AM 40.3 °F 31.9 °F 26.4 °F 58% 29.80 in 10.0 mi WNW 16.1 mph 21.9 mph N/A   Clear
4:35 AM 42.6 °F 33.3 °F 24.8 °F 49% 29.80 in 10.0 mi NW 23.0 mph 31.1 mph N/A   Clear
4:55 AM 43.0 °F 32.5 °F 23.4 °F 46% 29.80 in 10.0 mi NW 29.9 mph 41.4 mph N/A   Clear
5:15 AM 41.9 °F 33.1 °F 23.4 °F 48% 29.81 in 10.0 mi NW 19.6 mph 29.9 mph N/A   Clear
5:35 AM 41.4 °F 32.1 °F 23.4 °F 49% 29.82 in 10.0 mi WNW 20.7 mph 27.6 mph N/A   Scattered Clouds
5:55 AM 42.1 °F 31.5 °F 20.8 °F 43% 29.84 in 10.0 mi NW 28.8 mph 44.9 mph N/A   Scattered Clouds
6:15 AM 40.8 °F 31.1 °F 20.3 °F 44% 29.85 in 10.0 mi NW 21.9 mph 39.1 mph N/A   Clear
6:35 AM 39.9 °F 30.5 °F 20.3 °F 45% 29.85 in 10.0 mi NW 19.6 mph 27.6 mph N/A   Clear
6:55 AM 40.6 °F 30.9 °F 20.3 °F 44% 29.85 in 10.0 mi NW 21.9 mph 29.9 mph N/A   Mostly Cloudy
7:15 AM 41.2 °F 31.1 °F 19.9 °F 43% 29.85 in 10.0 mi NW 24.2 mph 35.7 mph N/A   Overcast
7:35 AM 40.8 °F 31.7 °F 20.3 °F 44% 29.86 in 10.0 mi NW 19.6 mph 28.8 mph N/A   Mostly Cloudy
7:55 AM 40.6 °F 30.4 °F 19.6 °F 43% 29.87 in 10.0 mi NW 24.2 mph 33.4 mph N/A   Mostly Cloudy
8:10 AM 39.9 °F 29.2 °F 18.7 °F 42% 29.88 in 10.0 mi NW 25.3 mph 31.1 mph N/A   Scattered Clouds
8:35 AM 39.9 °F 30.5 °F 19.0 °F 43% 29.88 in 10.0 mi NW 19.6 mph 29.9 mph N/A   Clear
8:55 AM 41.5 °F 32.9 °F 19.4 °F 41% 29.88 in 10.0 mi NW 18.4 mph 27.6 mph N/A   Mostly Cloudy
9:15 AM 41.2 °F 32.4 °F 19.4 °F 42% 29.88 in 10.0 mi WNW 18.4 mph 26.5 mph N/A   Scattered Clouds
9:30 AM 41.4 °F 32.1 °F 19.4 °F 41% 29.89 in 10.0 mi NW 20.7 mph 31.1 mph N/A   Scattered Clouds
9:55 AM 42.6 °F 32.2 °F 19.2 °F 39% 29.89 in 10.0 mi NW 28.8 mph 34.5 mph N/A   Clear
10:15 AM 42.6 °F 31.9 °F 18.7 °F 38% 29.89 in 10.0 mi NW 31.1 mph 39.1 mph N/A   Clear
10:35 AM 43.0 °F 32.7 °F 19.0 °F 38% 29.89 in 10.0 mi NW 28.8 mph 36.8 mph N/A   Clear
10:55 AM 44.8 °F 34.8 °F 19.0 °F 36% 29.89 in 10.0 mi NW 31.1 mph 41.4 mph N/A   Scattered Clouds
11:15 AM 44.8 °F 34.6 °F 18.0 °F 34% 29.89 in 10.0 mi NW 32.2 mph 46.0 mph N/A   Mostly Cloudy
11:35 AM 44.8 °F 35.2 °F 18.1 °F 34% 29.88 in 10.0 mi NNW 28.8 mph 39.1 mph N/A   Overcast
11:55 AM 44.6 °F 34.9 °F 17.4 °F 34% 29.88 in 10.0 mi NW 28.8 mph 39.1 mph N/A   Overcast
12:15 PM 44.6 °F 33.6 °F 16.7 °F 33% 29.88 in 10.0 mi NW 38.0 mph 54.1 mph N/A   Overcast
12:35 PM 43.5 °F 33.5 °F 17.1 °F 35% 29.87 in 10.0 mi NW 28.8 mph 40.3 mph N/A   Overcast
12:55 PM 43.0 °F 31.8 °F 16.9 °F 35% 29.86 in 10.0 mi NW 34.5 mph 43.7 mph N/A   Overcast
1:15 PM 43.0 °F 32.4 °F 17.2 °F 36% 29.86 in 10.0 mi NW 31.1 mph 42.6 mph N/A   Overcast
1:35 PM 43.7 °F 32.4 °F 16.9 °F 34% 29.86 in 10.0 mi NNW 38.0 mph 44.9 mph N/A   Overcast
1:55 PM 42.3 °F 30.5 °F 15.1 °F 33% 29.85 in 10.0 mi NW 36.8 mph 50.6 mph N/A   Mostly Cloudy
2:15 PM 44.1 °F 33.2 °F 17.4 °F 34% 29.87 in 10.0 mi NW 35.7 mph 47.2 mph N/A   Mostly Cloudy
2:35 PM 42.1 °F 31.1 °F 17.8 °F 38% 29.87 in 10.0 mi NW 31.1 mph 41.4 mph N/A   Scattered Clouds
2:55 PM 41.7 °F 30.1 °F 16.5 °F 36% 29.87 in 10.0 mi NW 34.5 mph 43.7 mph N/A   Scattered Clouds
3:15 PM 41.5 °F 30.6 °F 15.6 °F 35% 29.88 in 10.0 mi NW 29.9 mph 46.0 mph N/A   Mostly Cloudy
3:35 PM 41.2 °F 28.4 °F 14.4 °F 34% 29.89 in 10.0 mi NNW 41.4 mph 52.9 mph N/A   Mostly Cloudy
3:55 PM 40.1 °F 28.4 °F 13.5 °F 34% 29.90 in 10.0 mi NW 31.1 mph 42.6 mph N/A   Scattered Clouds
4:15 PM 40.1 °F 27.2 °F 14.4 °F 35% 29.91 in 10.0 mi NNW 39.1 mph 48.3 mph N/A   Scattered Clouds
4:35 PM 38.1 °F 25.7 °F 15.8 °F 40% 29.93 in 10.0 mi NW 31.1 mph 43.7 mph N/A   Mostly Cloudy
4:55 PM 36.3 °F 22.5 °F 20.1 °F 52% 29.95 in 7.0 mi NNW 35.7 mph 50.6 mph N/A Snow Light Snow
5:15 PM 35.1 °F 21.8 °F 17.4 °F 49% 29.96 in 10.0 mi North 29.9 mph 41.4 mph N/A   Mostly Cloudy
5:35 PM 32.5 °F 18.8 °F 14.9 °F 48% 29.98 in 10.0 mi North 27.6 mph 35.7 mph N/A   Scattered Clouds
5:55 PM 32.0 °F 17.2 °F 12.6 °F 45% 30.00 in 10.0 mi NNW 32.2 mph 42.6 mph N/A   Clear
6:15 PM 31.3 °F 15.6 °F 9.5 °F 40% 30.02 in 10.0 mi NNW 35.7 mph 41.4 mph N/A   Clear
6:35 PM 30.6 °F 15.4 °F 7.0 °F 37% 30.03 in 10.0 mi NNW 31.1 mph 40.3 mph N/A   Clear
6:55 PM 29.1 °F 11.6 °F 4.8 °F 36% 30.04 in 10.0 mi NNW 41.4 mph 52.9 mph N/A   Clear
7:15 PM 27.7 °F 11.3 °F 5.4 °F 39% 30.05 in 10.0 mi NNW 32.2 mph 48.3 mph N/A   Scattered Clouds
7:35 PM 27.1 °F 10.8 °F 5.2 °F 39% 30.06 in 10.0 mi NNW 31.1 mph 40.3 mph N/A   Overcast
7:55 PM 27.0 °F 10.0 °F 5.5 °F 40% 30.06 in 10.0 mi NNW 33.4 mph 42.6 mph N/A   Mostly Cloudy
8:15 PM 26.1 °F 11.0 °F 5.5 °F 42% 30.07 in 10.0 mi NNW 24.2 mph 36.8 mph N/A   Clear
8:35 PM 25.9 °F 8.3 °F 5.4 °F 42% 30.08 in 10.0 mi NW 34.5 mph 44.9 mph N/A   Clear
8:55 PM 24.8 °F 6.2 °F 5.5 °F 44% 30.08 in 10.0 mi NNW 38.0 mph 46.0 mph N/A   Clear
9:15 PM 23.9 °F 6.9 °F 5.9 °F 46% 30.09 in 10.0 mi NNW 28.8 mph 40.3 mph N/A   Clear
9:35 PM 23.2 °F 6.5 °F 6.8 °F 50% 30.09 in 10.0 mi NNW 26.5 mph 32.2 mph N/A   Clear
9:55 PM 23.0 °F 7.6 °F 7.7 °F 52% 30.10 in 10.0 mi NNW 21.9 mph 31.1 mph N/A   Clear
10:15 PM 23.5 °F 6.7 °F 7.7 °F 51% 30.10 in 10.0 mi NNW 27.6 mph 39.1 mph N/A   Clear
10:35 PM 22.6 °F 6.4 °F 7.7 °F 53% 30.10 in 10.0 mi NNW 24.2 mph 31.1 mph N/A   Clear
10:55 PM 22.5 °F 6.2 °F 7.7 °F 53% 30.10 in 10.0 mi NNW 24.2 mph 33.4 mph N/A   Clear
11:15 PM 22.1 °F 6.4 °F 6.6 °F 51% 30.11 in 10.0 mi NNW 21.9 mph 38.0 mph N/A   Clear
11:35 PM 21.7 °F 5.2 °F 4.8 °F 48% 30.11 in 10.0 mi NNW 24.2 mph 33.4 mph N/A   Clear
11:55 PM 21.0 °F 5.7 °F 4.6 °F 49% 30.11 in 10.0 mi NNW 19.6 mph 26.5 mph N/A   Clear